Regional Weather Roundup
Issued by NWS Green Bay, WI

Home | Current Version | Previous Version | Graphics & Text | Print | Product List | Glossary Off
Versions: 1 2 3 4 5 6 7 8 9 10 11 12 13 14 15 16 17 18 19 20 21 22 23 24 25 26 27 28 29 30 31 32 33 34 35 36 37 38 39 40 41 42 43 44 45 46 47 48 49 50

000
ASUS43 KGRB 302000
RWRGRB

NORTH-CENTRAL AND NORTHEAST WISCONSIN REGIONAL WEATHER ROUNDUP
NATIONAL WEATHER SERVICE GREEN BAY WI
300 PM CDT SUN AUG 30 2015

WIZ005-009-010>012-018-019-302100-
NORTH CENTRAL WISCONSIN

CITY           SKY/WX    TMP DP  RH WIND       PRES   REMARKS
IRONWOOD       MOSUNNY   81  63  54 SW14      29.89F
MANITOWISH WTR NOT AVBL
ARBOR VITAE    NOT AVBL
EAGLE RIVER    NOT AVBL
LAND O LAKES   NOT AVBL
RHINELANDER    NOT AVBL
PHILLIPS       SUNNY     77  65  67 S12       29.99S
ANTIGO         NOT AVBL
TOMAHAWK       NOT AVBL
MERRILL        SUNNY     76  64  67 SW9       30.02F
$$

WIZ013-073-302100-
NORTHEAST WISCONSIN

CITY           SKY/WX    TMP DP  RH WIND       PRES   REMARKS
IRON MOUNTAIN  MOSUNNY   79  61  53 S12       29.96F
MARINETTE      SUNNY     73  63  68 SW13      29.98F
$$

WIZ017-030-035>037-045-302100-
CENTRAL WISCONSIN

CITY           SKY/WX    TMP DP  RH WIND       PRES   REMARKS
MEDFORD        NOT AVBL
WAUSAU         SUNNY     76  63  64 SW9       30.01F
MOSINEE        NOT AVBL
MARSHFIELD     SUNNY     77  62  59 SW9       30.03F
WISC RAPIDS    SUNNY     76  61  59 S9        30.04F
STEVENS POINT  NOT AVBL
WAUPACA        NOT AVBL
SHAWANO        NOT AVBL
CLINTONVILLE   MOSUNNY   73  61  64 SW8G16    30.02F
WAUTOMA        NOT AVBL
$$

WIZ038-039-048-051-302100-
FOX VALLEY

CITY           SKY/WX    TMP DP  RH WIND       PRES   REMARKS
NWS GREEN BAY  PTSUNNY   73  64  73 SW12      30.02F
APPLETON       PTSUNNY   72  61  68 SW9       30.02F
OSHKOSH        MOSUNNY   72  62  71 SW6       30.04F
FOND DU LAC    MOSUNNY   73  63  70 SW9       30.04F
$$

WIZ022-050-052-302100-
EAST CENTRAL WISCONSIN

CITY           SKY/WX    TMP DP  RH WIND       PRES   REMARKS
EPHRAIM        FAIR      72  62  71 SW7       30.00F
STURGEON BAY   MOSUNNY   72  63  73 SW8       30.03F
MANITOWOC      NOT AVBL
SHEBOYGAN      MOSUNNY   73  63  70 SW6       30.04F
$$

LMZ563-521-522-541>543-302100-
LAKESHORE

STATION/POSITION TIME  TEMP    WIND        PRES    VSBY  WAVE
                       AIR SEA DIR/SP/G                  HT/PER
                 (UTC) (F)     (DEG/KT/KT) (MB)    (MI)  (FT/S)
SHEBOYGAN LKSHOR 1900   59     150/  7/  8 1018.1F
NORTHPORT PIER   1900   68     160/  8/ 12 1016.3F
N MID LAKE BUOY  1850   64 65  200/ 14/ 16 1016.4F         1/ 3
CHAMBERS ISLAND  1900   69     180/  7/ 15 1016.3F
$$


USA.gov is the U.S. government's official web portal to all federal, state and local government web resources and services.